KLM39M EHAM-EGPH

Flight info

Callsign KLM39M
Flight time N/A
Altitude 36000
Route BERGI L602 SUPUR P1 GODOS DCT ROXAT DCT BAZNA DCT ANMAZ DCT EWOKE DCT AGPED
Aircraft B738/M-SDE2E3FGHIRWXY/LB1

Departure

Time N/A
Airport Amsterdam Airport Schiphol (EHAM)

Arrival

Time 2026-04-26 21:22
Airport Edinburgh Airport (EGPH)
Time Latitude Longitude Altitude Speed Heading
2026-04-26 21:00 55.82604 -3.19856 33212 ft 393 kts 335°
2026-04-26 21:00 55.85205 -3.21276 32733 ft 392 kts 335°
2026-04-26 21:00 55.87823 -3.22703 32261 ft 392 kts 335°
2026-04-26 21:01 55.90424 -3.24122 31804 ft 391 kts 335°
2026-04-26 21:01 55.93023 -3.25539 31349 ft 391 kts 335°
2026-04-26 21:01 55.95623 -3.26956 30900 ft 390 kts 335°
2026-04-26 21:01 55.98219 -3.28370 30457 ft 390 kts 335°
2026-04-26 21:02 56.00816 -3.29786 29968 ft 389 kts 335°
2026-04-26 21:02 56.03401 -3.31202 29455 ft 388 kts 335°
2026-04-26 21:02 56.05975 -3.32621 28949 ft 387 kts 335°
2026-04-26 21:02 56.08541 -3.34049 28463 ft 385 kts 335°
2026-04-26 21:03 56.11094 -3.35484 27970 ft 384 kts 335°
2026-04-26 21:03 56.13617 -3.36987 27482 ft 379 kts 329°
2026-04-26 21:03 56.15777 -3.39470 26991 ft 362 kts 309°
2026-04-26 21:03 56.17231 -3.43017 26550 ft 348 kts 290°
2026-04-26 21:04 56.17828 -3.47141 26098 ft 339 kts 270°
2026-04-26 21:04 56.17516 -3.51256 25633 ft 331 kts 250°
2026-04-26 21:04 56.16509 -3.54939 25219 ft 327 kts 242°
2026-04-26 21:04 56.15327 -3.58421 24783 ft 327 kts 240°
2026-04-26 21:05 56.14103 -3.61869 24354 ft 327 kts 239°
2026-04-26 21:05 56.12872 -3.65294 23943 ft 327 kts 239°
2026-04-26 21:05 56.11631 -3.68717 23457 ft 327 kts 239°
2026-04-26 21:05 56.10359 -3.72064 22956 ft 329 kts 233°
2026-04-26 21:06 56.08591 -3.74650 22463 ft 337 kts 211°
2026-04-26 21:06 56.06320 -3.75871 21996 ft 348 kts 190°
2026-04-26 21:06 56.03881 -3.75490 21530 ft 360 kts 168°
2026-04-26 21:06 56.01608 -3.73510 21072 ft 371 kts 147°
2026-04-26 21:07 55.99817 -3.70154 20628 ft 379 kts 126°
2026-04-26 21:07 55.98759 -3.65831 20177 ft 383 kts 104°
2026-04-26 21:07 55.98582 -3.61097 19737 ft 384 kts 82°
2026-04-26 21:07 55.99295 -3.56541 19306 ft 380 kts 64°
2026-04-26 21:08 56.00471 -3.52338 18885 ft 378 kts 59°
2026-04-26 21:08 56.01735 -3.48195 18311 ft 380 kts 59°
2026-04-26 21:08 56.03014 -3.44086 17686 ft 377 kts 58°
2026-04-26 21:08 56.04291 -3.40009 17067 ft 374 kts 59°
2026-04-26 21:09 56.05569 -3.35964 16466 ft 372 kts 58°
2026-04-26 21:09 56.06841 -3.31962 15882 ft 368 kts 58°
2026-04-26 21:09 56.08106 -3.28005 15306 ft 363 kts 58°
2026-04-26 21:09 56.09353 -3.24121 14732 ft 357 kts 58°
2026-04-26 21:10 56.10587 -3.20294 14181 ft 353 kts 58°
2026-04-26 21:10 56.11810 -3.16519 13579 ft 348 kts 58°
2026-04-26 21:10 56.12999 -3.12858 12981 ft 344 kts 58°
2026-04-26 21:10 56.14218 -3.09120 12378 ft 340 kts 58°
2026-04-26 21:11 56.15409 -3.05480 11785 ft 336 kts 58°
2026-04-26 21:11 56.16589 -3.01887 11207 ft 333 kts 58°
2026-04-26 21:11 56.17762 -2.98332 10644 ft 329 kts 58°
2026-04-26 21:11 56.18924 -2.94820 10082 ft 326 kts 59°
2026-04-26 21:12 56.20080 -2.91339 9476 ft 323 kts 58°
2026-04-26 21:12 56.21202 -2.87891 9015 ft 316 kts 63°
2026-04-26 21:12 56.21779 -2.84204 8543 ft 309 kts 88°
2026-04-26 21:12 56.21447 -2.80436 8099 ft 299 kts 115°
2026-04-26 21:13 56.20303 -2.77435 7668 ft 288 kts 141°
2026-04-26 21:13 56.18686 -2.75430 7260 ft 280 kts 151°
2026-04-26 21:13 56.17031 -2.73628 6836 ft 276 kts 151°
2026-04-26 21:13 56.15300 -2.72306 6387 ft 268 kts 174°
2026-04-26 21:14 56.13491 -2.72531 5949 ft 259 kts 202°
2026-04-26 21:14 56.12024 -2.74246 5510 ft 251 kts 230°
2026-04-26 21:14 56.11017 -2.76715 5108 ft 247 kts 237°
2026-04-26 21:14 56.10262 -2.79467 4782 ft 239 kts 252°
2026-04-26 21:15 56.09758 -2.82252 4518 ft 231 kts 252°
2026-04-26 21:15 56.09276 -2.84917 4258 ft 224 kts 252°
2026-04-26 21:15 56.08802 -2.87527 4044 ft 216 kts 252°
2026-04-26 21:15 56.08348 -2.90021 4036 ft 206 kts 252°
2026-04-26 21:16 56.07913 -2.92408 3997 ft 198 kts 252°
2026-04-26 21:16 56.07494 -2.94708 3988 ft 191 kts 252°
2026-04-26 21:16 56.07087 -2.96940 3969 ft 187 kts 252°
2026-04-26 21:16 56.06688 -2.99124 3962 ft 182 kts 252°
2026-04-26 21:17 56.06298 -3.01260 3970 ft 181 kts 252°
2026-04-26 21:17 56.05896 -3.03469 4000 ft 192 kts 252°
2026-04-26 21:17 56.05480 -3.05741 3882 ft 191 kts 251°
2026-04-26 21:17 56.04930 -3.07882 3637 ft 188 kts 242°
2026-04-26 21:18 56.04284 -3.09894 3408 ft 185 kts 240°
2026-04-26 21:18 56.03629 -3.11848 3157 ft 181 kts 240°
2026-04-26 21:18 56.02979 -3.13763 2917 ft 178 kts 240°
2026-04-26 21:18 56.02340 -3.15639 2692 ft 175 kts 240°
2026-04-26 21:19 56.01711 -3.17487 2455 ft 173 kts 240°
2026-04-26 21:19 56.01094 -3.19298 2233 ft 167 kts 240°
2026-04-26 21:19 56.00510 -3.21006 1974 ft 157 kts 240°
2026-04-26 21:19 55.99942 -3.22632 1729 ft 155 kts 240°
2026-04-26 21:20 55.99377 -3.24250 1637 ft 148 kts 240°
2026-04-26 21:20 55.98851 -3.25775 1519 ft 143 kts 241°
2026-04-26 21:20 55.98361 -3.27255 1287 ft 131 kts 242°
2026-04-26 21:20 55.97941 -3.28549 1111 ft 113 kts 242°
2026-04-26 21:21 55.97484 -3.29918 988 ft 134 kts 240°
2026-04-26 21:21 55.97015 -3.31284 781 ft 125 kts 240°
2026-04-26 21:21 55.96569 -3.32643 570 ft 140 kts 240°
2026-04-26 21:21 55.96083 -3.34076 361 ft 138 kts 238°
2026-04-26 21:22 55.95581 -3.35543 170 ft 138 kts 239°
2026-04-26 21:22 55.95103 -3.36942 112 ft 120 kts 239°
2026-04-26 21:22 55.94816 -3.37787 113 ft 43 kts 239°
2026-04-26 21:23 55.94664 -3.38027 111 ft 8 kts 148°
2026-04-26 21:23 55.94618 -3.37977 114 ft 8 kts 148°
2026-04-26 21:23 55.94589 -3.37909 114 ft 7 kts 92°
2026-04-26 21:23 55.94610 -3.37825 112 ft 8 kts 58°
2026-04-26 21:24 55.94641 -3.37736 115 ft 9 kts 59°
2026-04-26 21:24 55.94687 -3.37600 114 ft 17 kts 59°
2026-04-26 21:24 55.94753 -3.37406 113 ft 18 kts 59°
2026-04-26 21:24 55.94818 -3.37214 114 ft 18 kts 58°
2026-04-26 21:25 55.94881 -3.37029 113 ft 17 kts 58°
2026-04-26 21:25 55.94945 -3.36839 114 ft 19 kts 59°
2026-04-26 21:25 55.95022 -3.36610 113 ft 23 kts 58°
2026-04-26 21:25 55.95103 -3.36376 113 ft 20 kts 58°
2026-04-26 21:26 55.95135 -3.36243 115 ft 9 kts 93°
2026-04-26 21:26 55.95108 -3.36080 113 ft 15 kts 108°
2026-04-26 21:26 55.95069 -3.35909 114 ft 15 kts 118°
2026-04-26 21:26 55.94990 -3.35851 115 ft 14 kts 201°
2026-04-26 21:27 55.94930 -3.35830 114 ft 3 kts 142°
2026-04-26 21:27 55.94911 -3.35816 114 ft 3 kts 161°
2026-04-26 21:27 55.94890 -3.35817 113 ft 3 kts 195°
2026-04-26 21:27 55.94871 -3.35832 114 ft 3 kts 209°
2026-04-26 21:28 55.94853 -3.35850 112 ft 3 kts 209°
2026-04-26 21:28 55.94845 -3.35858 113 ft 0 kts 209°